EW8564 Weather Reports


time (UTC)temp
C
wind
direction
speed
KPH
gust
KPH
rain 1hr
cm
rain 24hr
cm
rain mn
cm
humidity
%
barometer
mb
20260507233704 23 294 6.4 27.4 0.00 0.00 0.00 26 1003.4
20260507232703 23 283 4.8 22.5 0.00 0.00 0.00 27 1003.4
20260507231702 23 331 1.6 24.1 0.00 0.00 0.00 28 1003.4
20260507230702 23 329 3.2 29.0 0.00 0.00 0.00 28 1003.4
20260507225701 22 313 6.4 29.0 0.00 0.00 0.00 28 1003.4
20260507224700 22 321 1.6 25.7 0.00 0.00 0.00 29 1003.4
20260507223659 23 322 3.2 19.3 0.00 0.00 0.00 28 1003.4
20260507222657 22 313 1.6 19.3 0.00 0.00 0.00 27 1003.4
20260507221656 22 356 3.2 16.1 0.00 0.00 0.00 29 1003.7
20260507220654 22 327 3.2 24.1 0.00 0.00 0.00 29 1003.4
20260507215652 22 275 11.3 24.1 0.00 0.00 0.00 28 1003.7
20260507214651 22 251 4.8 20.9 0.00 0.00 0.00 29 1003.7
20260507213619 22 274 1.6 32.2 0.00 0.00 0.00 31 1004.1
20260507212618 22 308 4.8 32.2 0.00 0.00 0.00 31 1004.1
20260507211615 22 293 4.8 24.1 0.00 0.00 0.00 30 1004.1
20260507210615 22 315 4.8 27.4 0.00 0.00 0.00 30 1004.1
20260507205614 21 324 9.7 27.4 0.00 0.00 0.00 32 1004.4
20260507204613 21 314 3.2 25.7 0.00 0.00 0.00 33 1004.4
20260507203612 21 304 4.8 32.2 0.00 0.00 0.00 32 1004.4
20260507202612 21 315 3.2 25.7 0.00 0.00 0.00 35 1004.4
20260507201610 21 320 4.8 33.8 0.00 0.00 0.00 33 1004.4
20260507200609 21 342 6.4 33.8 0.00 0.00 0.00 36 1004.4
20260507195607 21 329 6.4 29.0 0.00 0.00 0.00 36 1004.7
20260507194536 21 307 12.9 27.4 0.00 0.00 0.00 35 1004.7
20260507193535 20 350 3.2 25.7 0.00 0.00 0.00 37 1004.7
20260507192534 20 309 6.4 25.7 0.00 0.00 0.00 36 1004.7
20260507191533 20 343 1.6 24.1 0.00 0.00 0.00 37 1005.1
20260507190501 20 305 6.4 25.7 0.00 0.00 0.00 38 1005.1
20260507185429 20 327 3.2 25.7 0.00 0.00 0.00 38 1005.1
20260507184428 20 332 1.6 20.9 0.00 0.00 0.00 39 1005.1
20260507183325 19 2 1.6 19.3 0.00 0.00 0.00 41 1005.1
20260507182252 19 310 1.6 22.5 0.00 0.00 0.00 41 1005.4
20260507181250 18 17 1.6 22.5 0.00 0.00 0.00 42 1005.4
20260507180248 19 309 0.0 6.4 0.00 0.00 0.00 42 1005.8
20260507175247 18 51 1.6 4.8 0.00 0.00 0.00 42 1005.8
20260507174246 18 327 1.6 14.5 0.00 0.00 0.00 42 1006.1
20260507173245 17 292 0.0 22.5 0.00 0.00 0.00 43 1006.1
20260507172244 17 304 0.0 22.5 0.00 0.00 0.00 43 1006.4
20260507171213 17 329 0.0 19.3 0.00 0.00 0.00 43 1006.4
20260507170139 17 325 3.2 19.3 0.00 0.00 0.00 43 1006.4
20260507165139 17 289 1.6 27.4 0.00 0.00 0.00 42 1006.4
20260507164138 17 320 1.6 27.4 0.00 0.00 0.00 43 1006.4
20260507163137 17 307 9.7 25.7 0.00 0.00 0.00 43 1006.4
20260507162136 17 283 1.6 25.7 0.00 0.00 0.00 43 1006.4
20260507161135 17 274 9.7 22.5 0.00 0.00 0.00 42 1006.4
20260507160136 17 304 1.6 29.0 0.00 0.00 0.00 42 1006.4
20260507155133 17 286 11.3 29.0 0.00 0.00 0.00 41 1006.4
20260507154131 17 313 8.0 27.4 0.00 0.00 0.00 43 1006.8
20260507153130 17 312 3.2 22.5 0.00 0.00 0.00 43 1006.8
20260507152129 16 314 4.8 22.5 0.00 0.00 0.00 43 1006.8
20260507151128 16 350 0.0 14.5 0.00 0.00 0.00 46 1006.8
20260507150056 16 338 1.6 12.9 0.00 0.00 0.00 46 1006.8
20260507145055 16 321 1.6 12.9 0.00 0.00 0.00 48 1006.8
20260507144054 15 318 1.6 27.4 0.00 0.00 0.00 55 1006.8
20260507143052 13 330 0.0 27.4 0.00 0.00 0.00 66 1006.4
20260507142052 11 18 0.0 22.5 0.00 0.00 0.00 82 1006.4
20260507141050 10 33 0.0 0.0 0.00 0.00 0.00 85 1006.4
20260507140017 9 106 0.0 0.0 0.00 0.00 0.00 85 1006.4
20260507135016 8 106 0.0 0.0 0.00 0.00 0.00 84 1006.4
20260507133944 8 99 0.0 0.0 0.00 0.00 0.00 85 1006.4
20260507132911 8 101 0.0 0.0 0.00 0.00 0.00 85 1006.4
20260507131910 8 101 0.0 0.0 0.00 0.00 0.00 84 1006.4
20260507130909 8 101 0.0 0.0 0.00 0.00 0.00 84 1006.1
20260507125908 8 101 0.0 0.0 0.00 0.00 0.00 84 1006.1
20260507124907 8 38 0.0 0.0 0.00 0.00 0.00 84 1006.1
20260507123907 7 11 0.0 0.0 0.00 0.00 0.00 84 1006.1
20260507122906 7 11 0.0 0.0 0.00 0.00 0.00 84 1006.1
20260507121832 7 11 0.0 0.0 0.00 0.00 0.00 83 1006.1
20260507120832 7 11 0.0 0.0 0.00 0.00 0.00 82 1006.1
20260507115830 7 11 0.0 0.0 0.00 0.00 0.00 82 1006.1
20260507114829 7 11 0.0 0.0 0.00 0.00 0.00 82 1006.1
20260507113827 7 11 0.0 0.0 0.00 0.00 0.00 81 1005.8
20260507112827 7 11 0.0 0.0 0.00 0.00 0.00 81 1005.8
20260507111825 8 10 0.0 0.0 0.00 0.00 0.00 81 1005.8
20260507110753 8 10 0.0 0.0 0.00 0.00 0.00 80 1005.4
20260507105752 8 10 0.0 0.0 0.00 0.00 0.00 79 1005.4
20260507104751 8 10 0.0 0.0 0.00 0.00 0.00 79 1005.4
20260507103750 9 10 0.0 0.0 0.00 0.00 0.00 79 1005.4
20260507102749 9 10 0.0 0.0 0.00 0.00 0.00 78 1005.1
20260507101749 9 10 0.0 0.0 0.00 0.00 0.00 77 1005.1
20260507100748 10 35 0.0 0.0 0.00 0.00 0.00 78 1005.1
20260507095747 10 35 0.0 0.0 0.00 0.00 0.00 76 1005.1
20260507094746 10 35 0.0 0.0 0.00 0.00 0.00 75 1005.1
20260507093745 11 35 0.0 0.0 0.00 0.00 0.00 73 1004.7
20260507092744 11 35 0.0 0.0 0.00 0.00 0.00 73 1005.1
20260507091712 11 35 0.0 0.0 0.00 0.00 0.00 72 1005.1
20260507090711 11 35 0.0 0.0 0.00 0.00 0.00 71 1005.1
20260507085709 11 35 0.0 0.0 0.00 0.00 0.00 70 1004.7
20260507084707 11 35 0.0 0.0 0.00 0.00 0.00 68 1004.7
20260507083706 12 35 0.0 0.0 0.00 0.00 0.00 67 1005.1
20260507082704 12 35 0.0 0.0 0.00 0.00 0.00 66 1005.1
20260507081704 13 35 0.0 0.0 0.00 0.00 0.00 64 1005.1
20260507080703 13 35 0.0 0.0 0.00 0.00 0.00 64 1004.7
20260507075702 13 35 0.0 0.0 0.00 0.00 0.00 62 1004.7
20260507074700 13 35 0.0 0.0 0.00 0.00 0.00 61 1004.7
20260507073659 14 35 0.0 0.0 0.00 0.00 0.00 60 1004.7
20260507072658 15 35 0.0 0.0 0.00 0.00 0.00 58 1004.4
20260507071658 15 35 0.0 0.0 0.00 0.00 0.00 56 1004.7
20260507070626 15 34 0.0 0.0 0.00 0.00 0.00 54 1004.7
20260507065626 16 34 0.0 0.0 0.00 0.00 0.00 53 1004.7
20260507064624 16 34 0.0 0.0 0.00 0.00 0.00 51 1004.7
20260507063623 17 14 0.0 0.0 0.00 0.00 0.00 47 1004.7
20260507062623 17 3 0.0 1.6 0.00 0.00 0.00 45 1004.7
20260507061551 18 358 0.0 25.7 0.00 0.00 0.00 43 1004.7
20260507060551 17 289 1.6 25.7 0.00 0.00 0.00 43 1004.7
20260507055550 17 288 0.0 24.1 0.00 0.00 0.00 45 1004.7
20260507054518 16 302 6.4 24.1 0.00 0.00 0.00 45 1004.7
20260507053516 16 350 0.0 1.6 0.00 0.00 0.00 46 1004.7
20260507052515 16 323 0.0 1.6 0.00 0.00 0.00 47 1004.7
20260507051512 15 239 0.0 1.6 0.00 0.00 0.00 50 1004.4
20260507050511 16 268 0.0 24.1 0.00 0.00 0.00 54 1004.4
20260507045511 17 264 0.0 24.1 0.00 0.00 0.00 43 1004.4
20260507044510 15 238 0.0 1.6 0.00 0.00 0.00 58 1004.7
20260507043509 14 118 0.0 1.6 0.00 0.00 0.00 63 1004.7
20260507042508 14 335 0.0 0.0 0.00 0.00 0.00 64 1004.7
20260507041507 14 83 0.0 1.6 0.00 0.00 0.00 63 1004.7
20260507040506 14 127 0.0 1.6 0.00 0.00 0.00 63 1004.7
20260507035403 15 274 0.0 14.5 0.00 0.00 0.00 61 1004.7
20260507034401 15 274 0.0 14.5 0.00 0.00 0.00 61 1004.7
20260507033400 15 138 0.0 0.0 0.00 0.00 0.00 61 1004.7
20260507032359 15 138 0.0 0.0 0.00 0.00 0.00 60 1004.4
20260507031358 16 138 0.0 0.0 0.00 0.00 0.00 59 1004.4
20260507030356 16 139 0.0 0.0 0.00 0.00 0.00 59 1004.4
20260507025355 16 139 0.0 0.0 0.00 0.00 0.00 56 1004.4
20260507024322 16 139 0.0 0.0 0.00 0.00 0.00 55 1004.4
20260507023320 17 139 0.0 0.0 0.00 0.00 0.00 55 1004.4
20260507022319 17 139 0.0 0.0 0.00 0.00 0.00 53 1004.4
20260507021318 17 139 0.0 0.0 0.00 0.00 0.00 53 1004.4
20260507020317 18 139 0.0 0.0 0.00 0.00 0.00 51 1004.4
20260507015317 18 216 0.0 1.6 0.00 0.00 0.00 50 1004.4
20260507014316 19 240 0.0 1.6 0.00 0.00 0.00 45 1004.7
20260507013314 19 221 0.0 1.6 0.00 0.00 0.00 41 1004.7
20260507012313 18 180 0.0 11.3 0.00 0.00 0.00 42 1004.7
20260507011312 18 352 1.6 11.3 0.00 0.00 0.00 44 1005.1
20260507010311 20 121 0.0 1.6 0.00 0.00 0.00 50 1004.4
20260507005310 20 169 0.0 1.6 0.00 0.00 0.00 45 1004.7
20260507004310 20 72 0.0 1.6 0.00 0.00 0.00 45 1004.4
20260507003308 21 170 0.0 1.6 0.00 0.00 0.00 43 1004.7
20260507002237 21 137 0.0 1.6 0.00 0.00 0.00 41 1004.7
20260507001204 21 103 0.0 1.6 0.00 0.00 0.00 39 1004.7
20260507000204 21 98 0.0 1.6 0.00 0.00 0.00 39 1005.1
20260506235058 21 327 0.0 29.0 0.00 0.00 0.00 40 1004.7